Regional Weather Roundup
Issued by NWS Charleston, SC

Current Version | Previous Version | Graphics & Text | Print | Product List | Glossary On
Versions: 1 2 3 4 5 6 7 8 9 10 11 12 13 14 15 16 17 18 19 20 21 22 23 24 25 26 27 28 29 30 31 32 33 34 35 36 37 38 39 40 41 42 43 44 45 46 47 48 49 50
000
ASUS42 KCHS 270925
RWRCHS

REGIONAL WEATHER ROUNDUP
NATIONAL WEATHER SERVICE CHARLESTON SC
400 AM EST SAT DEC 27 2014

NOTE: "FAIR" INDICATES FEW OR NO CLOUDS BELOW 12,000 FEET WITH NO
SIGNIFICANT WEATHER AND/OR OBSTRUCTIONS TO VISIBILITY.

NOT ALL STATIONS ARE QUALITY CONTROLLED BY THE NATIONAL
WEATHER SERVICE. USE DATA WITH CAUTION...ESPECIALLY
DEWPOINT OBSERVATIONS.

SCZ027-030-031-034>040-042>050-271000-
...SOUTHEAST SOUTH CAROLINA...

CITY           SKY/WX    TMP DP  RH WIND       PRES   REMARKS
N CHARLESTON   CLEAR     41  40  96 CALM      30.28F
WATERFRONT PRK   N/A     52 N/A N/A N6          N/A
MOUNT PLEASANT MIX PCPN  41  41 100 CALM      30.28F
PINOPOLIS        N/A     48  45  87 CALM      30.23R
MONCKS CORNER  FAIR      41  37  87 CALM      30.28F FOG
SUMMERVILLE    FOG       37  37 100 CALM      30.29F VSB 3/4
BEAUFORT MCAS  CLEAR     44  42  93 N5        30.28S
BEAUFORT ARPT  FAIR      46  46 100 N5        30.27S FOG
HILTON HEAD IS CLEAR     46  46 100 N5        30.28F
WALTERBORO     SUNNY     36 N/A N/A N3        30.30S
ALLENDALE      FAIR      37  37 100 CALM      30.27F

...SOUTHERN MIDLANDS AND PEE DEE...

CITY           SKY/WX    TMP DP  RH WIND       PRES   REMARKS
GEORGETOWN     NOT AVBL
KINGSTREE      NOT AVBL
ORANGEBURG     CLEAR     36  33  89 CALM      30.29F
BARNWELL         N/A     34  32  93 CALM      30.30S
AIKEN          FAIR      32  32 100 CALM      30.32F
MANNING        FAIR      34 N/A N/A CALM      30.29F
COLUMBIA       CLEAR     32  28  85 W3        30.30S
SUMTER         PTCLDY    33  31  91 CALM      30.28F
FLORENCE       CLEAR     36  33  89 CALM      30.31R
MYRTLE BEACH   CLEAR     39  36  87 CALM      30.30R
N MYRTLE BEACH PTCLDY    36  34  92 CALM      30.29S FOG

$$

GAZ063-065-086>088-099>101-113>116-118-119-134>141-150-271000-
...SOUTHEAST GEORGIA...

CITY           SKY/WX    TMP DP  RH WIND       PRES   REMARKS
SAVANNAH ARPT  CLEAR     42  40  92 N3        30.27F
HUNTER AAF     CLEAR     46  46 100 CALM      30.25F
FORT STEWART   CLEAR     41  40  95 CALM      30.26F
STATESBORO     CLEAR     36  36 100 CALM      30.26F
SYLVANIA       SUNNY     37  37 100 CALM      30.27F
CLAXTON        FAIR      37  37 100 CALM      30.27F

...CSRA...CENTRAL AND FAR SOUTHEAST GEORGIA...

CITY           SKY/WX    TMP DP  RH WIND       PRES   REMARKS
THOMSON        CLEAR     32  32 100 CALM      30.33F
AUGUSTA-BUSH   CLEAR     31  29  92 NW3       30.31S
AUGUSTA-DANIEL CLEAR     42  37  82 N6        30.30S
SWAINSBORO     FAIR     N/A N/A N/A CALM      30.29S
VIDALIA        CLEAR     41  39  93 N5        30.27R
EASTMAN        FAIR      37  37 100 CALM      30.31R
HAZLEHURST     FAIR      44  44 100 N3        30.26R
ALMA           CLEAR     41  40  96 CALM      30.26S
WAYCROSS       CLEAR     47  47 100 CALM      30.26S FOG
JESUP          FAIR      46  46 100 CALM      30.26F
BAXLEY         FAIR      43  41  93 CALM      30.25F
BRUNSWICK      CLEAR     52  48  87 CALM      30.26S
SAINT SIMONS   PTCLDY    53  50  89 N7        30.24F

$$

SCZ027-028-034-036>038-045-046-048>050-GAZ119-141-271000-
...LAKE AND SUPPLEMENTAL COASTAL OBSERVATIONS...

STATION/POSITION TIME  TEMP    WIND        PRES    WAVE   SWELL
                       AIR SEA DIR/SP/G            HT/PER HT/PER/DIR
                 (UTC) (F)     (DEG/KT/KT) (MB)    (FT/S) (FT/S/D)
UPR LAKE MARION  NOT AVBL
WINYAH BAY       0900   43     330/  2     1025.0S
LAKE MURRAY      0800   41        CALM     1025.4F
ACE BASIN NERRS  0900   45        CALM     1025.0S
FORT PULASKI     0900   53 56   30/  6/  7 1025.0F
SAPELO ISLAND    0900   49      20/  6     1024.0S

$$

ANZ835-935-AMZ111-154-330-350-352-354-370-450-454-472-271000-
...C-MAN AND BUOY OBSERVATIONS...

STATION/POSITION TIME  TEMP    WIND        PRES    WAVE   SWELL
                       AIR SEA DIR/SP/G            HT/PER HT/PER/DIR
                 (UTC) (F)     (DEG/KT/KT) (MB)    (FT/S) (FT/S/D)
BUOY 41004       0900   64 74   20/ 12/ 14 1024.6F   2/ 8   2/ 8
BUOY 41008       0900   59 58   40/ 12/ 14 1024.0F   2/ 7   2/100/ 7
FOLLY BEACH CMAN 0900   53      20/  4/  5 1025.5F
CAPERS NEARSHORE 0800   54      40/  8/ 10   N/A
FRIPP NEARSHORE  NOT AVBL


STATION/POSITION TIME  TEMP    WIND        PRES    WAVE   SWELL
                       AIR SEA DIR/SP/G            HT/PER HT/PER/DIR
                 (UTC) (F)     (DEG/KT/KT) (MB)    (FT/S) (FT/S/D)
5E ST. MARYS GA  0900      61                N/A     3/ 5
FRYING PAN BUOY  0900   60 69  360/  6/  8 1025.9F   2/13   2/140/13
BUOY 41025       0900   56                 1025.8F   2/12
CAPE LOOKOUT NC  0900   52     360/  7/  7 1025.5F
BUOY 41002       0819   67 74   80/  6/ 10 1024.8F   3/12   3/ 70/12
BUOY 41010       0900   74 77   70/ 10/ 12 1022.6S   3/14   2/ 90/14
ST AUGUSTINE FL  0900   63     360/ 11/ 12 1023.7F


$$



USA.gov is the U.S. government's official web portal to all federal, state and local government web resources and services.